Middletown, OH

6:15 PM EST on February 22, 2017 (GMT -0500)
Hook Field Municipal

Weather History for KMWO - October, 2012

Change the Weather History Date:

Wednesday, October 10, 2012

  Actual Average (KFFO) Record (KFFO)
Temperature  
Mean Temperature 46 °F -  
Max Temperature 56 °F 65 °F 86 °F (2010)
Min Temperature 35 °F 42 °F 34 °F (2012)
Degree Days  
Heating Degree Days 20    
Moisture  
Dew Point 41 °F    
Average Humidity 79    
Maximum Humidity 100    
Minimum Humidity 50    
Precipitation  
Precipitation 0.00 in - - ()
Sea Level Pressure  
Sea Level Pressure 30.08 in    
Wind  
Wind Speed 7 mph (West)    
Max Wind Speed 20 mph    
Max Gust Speed 32 mph    
Visibility 10 miles    
Events Rain    
Averages and records for this station are not official NWS values.
T = Trace of Precipitation, MM = Missing Value Source: NWS Daily Summary

Daily Weather History Graph

Daily Weather History Graph

Search for Another Location

Airport or City:

Trip Planner

Search our weather history database for the weather conditions in past years. The results will help you decide how hot, cold, wet, or windy it might be!

Date:

Astronomy

Oct. 10, 2012 Rise Set
Actual Time 7:43 AM EDT 7:05 PM EDT
Civil Twilight 7:16 AM EDT 7:32 PM EDT
Nautical Twilight 6:44 AM EDT 8:03 PM EDT
Astronomical Twilight 6:13 AM EDT 8:34 PM EDT
Moon 2:19 AM EDT (10/10) 4:06 PM EDT (10/10)
Length of Visible Light 12h 16m
Length of Day
11h 22m
Waning Crescent, 27% of the Moon is Illuminated
Oct 10
Waning Crescent
Oct 15
New
Oct 21
First Quarter
Oct 29
Full
Nov 6
Last Quarter

Hourly Weather History & Observations

Time (EDT) Temp. Windchill Dew Point Humidity Pressure Visibility Wind Dir Wind Speed Gust Speed Precip Events Conditions
12:15 AM 47.7 °F - 43.9 °F 87% 29.98 in 10.0 mi SW 4.6 mph - N/A   Clear
12:35 AM 47.7 °F - 44.8 °F 90% 29.98 in 10.0 mi SW 5.8 mph - N/A   Clear
12:55 AM 47.7 °F - 44.6 °F 89% 29.97 in 10.0 mi SW 5.8 mph - N/A   Clear
1:15 AM 45.3 °F 41.6 °F 43.0 °F 92% 29.97 in 10.0 mi SW 6.9 mph - N/A   Clear
1:35 AM 47.7 °F - 45.1 °F 91% 29.97 in 10.0 mi SW 6.9 mph - N/A   Clear
1:55 AM 45.1 °F 42.0 °F 42.8 °F 91% 29.97 in 10.0 mi SSW 5.8 mph - N/A   Clear
2:15 AM 46.4 °F 43.5 °F 43.5 °F 90% 29.97 in 10.0 mi SSW 5.8 mph - N/A   Clear
2:35 AM 45.3 °F 41.6 °F 43.0 °F 92% 29.97 in 10.0 mi SSW 6.9 mph - N/A   Clear
2:55 AM 47.7 °F - 45.3 °F 92% 29.96 in 10.0 mi SSW 4.6 mph - N/A   Clear
3:15 AM 47.7 °F - 45.3 °F 92% 29.95 in 10.0 mi SSW 4.6 mph - N/A   Scattered Clouds
3:35 AM 45.1 °F - 44.6 °F 98% 29.95 in 10.0 mi Calm Calm - N/A   Scattered Clouds
3:55 AM 47.7 °F - 46.9 °F 97% 29.95 in 10.0 mi Calm Calm - N/A   Clear
4:15 AM 47.7 °F - 46.6 °F 96% 29.94 in 10.0 mi Calm Calm - N/A   Clear
4:35 AM 47.7 °F - 46.6 °F 96% 29.94 in 10.0 mi Calm Calm - N/A   Scattered Clouds
4:55 AM 47.7 °F - 47.3 °F 99% 29.94 in 10.0 mi Calm Calm - N/A   Mostly Cloudy
5:15 AM 47.7 °F - 46.4 °F 95% 29.93 in 10.0 mi West 4.6 mph - N/A   Mostly Cloudy
5:35 AM 47.7 °F - 46.4 °F 95% 29.94 in 10.0 mi WSW 5.8 mph - N/A   Scattered Clouds
5:55 AM 47.7 °F - 46.4 °F 95% 29.94 in 10.0 mi SW 8.1 mph - N/A   Mostly Cloudy
6:15 AM 47.7 °F - 45.7 °F 93% 29.95 in 10.0 mi WSW 6.9 mph - N/A   Mostly Cloudy
6:35 AM 47.7 °F - 46.4 °F 95% 29.95 in 10.0 mi WSW 5.8 mph - N/A   Mostly Cloudy
6:55 AM 47.7 °F - 46.4 °F 95% 29.97 in 10.0 mi WSW 4.6 mph - N/A   Overcast
7:15 AM 47.7 °F - 45.7 °F 93% 29.98 in 10.0 mi WSW 4.6 mph - N/A   Overcast
7:35 AM 47.7 °F - 45.7 °F 93% 29.98 in 10.0 mi WSW 4.6 mph - N/A   Overcast
7:55 AM 47.7 °F - 46.4 °F 95% 30.00 in 10.0 mi West 3.5 mph - N/A Rain Light Rain
8:15 AM 47.7 °F - 46.8 °F 97% 30.00 in 5.0 mi Calm Calm - N/A   Unknown
8:35 AM 47.7 °F - 46.9 °F 97% 30.01 in 10.0 mi West 4.6 mph - N/A   Overcast
8:55 AM 47.7 °F - 47.3 °F 99% 30.02 in 10.0 mi Calm Calm - N/A   Overcast
9:35 AM 47.7 °F - 45.7 °F 93% 30.05 in 10.0 mi WNW 11.5 mph 18.4 mph N/A   Overcast
9:55 AM 47.7 °F - 43.9 °F 87% 30.06 in 10.0 mi WNW 16.1 mph 20.7 mph N/A   Mostly Cloudy
10:15 AM 48.9 °F - 42.6 °F 79% 30.06 in 10.0 mi NW 15.0 mph 20.7 mph N/A   Scattered Clouds
10:35 AM 51.6 °F - 44.6 °F 77% 30.07 in 10.0 mi NW 16.1 mph 20.7 mph N/A   Scattered Clouds
10:55 AM 51.8 °F - 43.9 °F 74% 30.08 in 10.0 mi NW 16.1 mph - N/A   Scattered Clouds
11:15 AM 52.0 °F - 44.2 °F 75% 30.09 in 10.0 mi NW 15.0 mph - N/A   Scattered Clouds
11:35 AM 52.2 °F - 42.6 °F 70% 30.09 in 10.0 mi WNW 9.2 mph 25.3 mph N/A   Scattered Clouds
11:55 AM 52.7 °F - 41.2 °F 65% 30.10 in 10.0 mi NW 16.1 mph 20.7 mph N/A   Mostly Cloudy
12:15 PM 52.7 °F - 40.6 °F 64% 30.10 in 10.0 mi West 17.3 mph 21.9 mph N/A   Scattered Clouds
12:55 PM 52.7 °F - 38.5 °F 58% 30.11 in 10.0 mi WNW 19.6 mph 25.3 mph N/A   Scattered Clouds
1:15 PM 53.1 °F - 38.8 °F 59% 30.10 in 10.0 mi WNW 11.5 mph 21.9 mph N/A   Clear
1:35 PM 55.4 °F - 40.3 °F 57% 30.10 in 10.0 mi WNW 10.4 mph 25.3 mph N/A   Scattered Clouds
2:15 PM 55.4 °F - 39.0 °F 54% 30.08 in 10.0 mi West 16.1 mph 23.0 mph N/A   Unknown
2:35 PM 56.7 °F - 39.7 °F 53% 30.08 in 10.0 mi West 16.1 mph 21.9 mph N/A   Scattered Clouds
2:55 PM 55.4 °F - 37.4 °F 51% 30.09 in 10.0 mi West 18.4 mph 25.3 mph N/A   Scattered Clouds
3:15 PM 55.2 °F - 38.7 °F 54% 30.10 in 10.0 mi West 17.3 mph 23.0 mph N/A   Scattered Clouds
3:35 PM 55.4 °F - 37.9 °F 52% 30.11 in 10.0 mi West 18.4 mph 32.2 mph N/A   Scattered Clouds
3:55 PM 55.4 °F - 37.9 °F 52% 30.12 in 10.0 mi WNW 13.8 mph 24.2 mph N/A   Scattered Clouds
4:15 PM 53.1 °F - 37.4 °F 55% 30.13 in 10.0 mi WNW 15.0 mph 20.7 mph N/A   Scattered Clouds
4:35 PM 52.7 °F - 36.0 °F 53% 30.13 in 10.0 mi WNW 16.1 mph 25.3 mph N/A   Scattered Clouds
4:55 PM 52.7 °F - 36.9 °F 55% 30.14 in 10.0 mi NW 13.8 mph 21.9 mph N/A   Scattered Clouds
5:15 PM 52.7 °F - 35.4 °F 52% 30.15 in 10.0 mi WNW 13.8 mph 21.9 mph N/A   Mostly Cloudy
5:35 PM 52.7 °F - 35.1 °F 51% 30.16 in 10.0 mi WNW 12.7 mph 27.6 mph N/A   Scattered Clouds
5:55 PM 52.7 °F - 34.7 °F 50% 30.16 in 10.0 mi WNW 11.5 mph - N/A   Clear
6:15 PM 52.7 °F - 35.1 °F 51% 30.16 in 10.0 mi WNW 8.1 mph 21.9 mph N/A   Clear
6:35 PM 51.1 °F - 33.1 °F 50% 30.17 in 10.0 mi WNW 9.2 mph 17.3 mph N/A   Clear
6:55 PM 48.7 °F - 32.0 °F 52% 30.17 in 10.0 mi WNW 6.9 mph - N/A   Clear
7:15 PM 47.7 °F - 32.0 °F 55% 30.18 in 10.0 mi NW 6.9 mph - N/A   Clear
7:35 PM 47.7 °F - 33.4 °F 58% 30.19 in 10.0 mi WNW 4.6 mph - N/A   Clear
7:55 PM 47.1 °F - 33.4 °F 59% 30.20 in 10.0 mi WNW 3.5 mph - N/A   Clear
8:15 PM 44.1 °F - 33.1 °F 65% 30.21 in 10.0 mi Calm Calm - N/A   Clear
8:35 PM 41.0 °F 39.0 °F 35.2 °F 80% 30.22 in 10.0 mi West 3.5 mph - N/A   Clear
8:55 PM 37.6 °F - 34.7 °F 89% 30.23 in 10.0 mi Calm Calm - N/A   Clear
9:15 PM 37.6 °F - 35.1 °F 91% 30.23 in 10.0 mi Calm Calm - N/A   Clear
9:35 PM 36.5 °F - 34.7 °F 93% 30.24 in 10.0 mi Calm Calm - N/A   Clear
9:55 PM 37.0 °F - 34.7 °F 91% 30.24 in 10.0 mi Calm Calm - N/A   Clear
10:15 PM 37.2 °F - 36.1 °F 96% 30.25 in 10.0 mi Calm Calm - N/A   Clear
10:35 PM 35.1 °F - 34.5 °F 98% 30.25 in 10.0 mi Calm Calm - N/A   Clear
10:55 PM 35.1 °F - 34.7 °F 99% 30.26 in 10.0 mi Calm Calm - N/A   Clear
11:15 PM 35.1 °F - 35.1 °F 100% 30.26 in 10.0 mi Calm Calm - N/A   Clear
11:35 PM 35.1 °F - 35.1 °F 100% 30.26 in 10.0 mi Calm Calm - N/A   Clear
11:55 PM 35.1 °F - 35.1 °F 100% 30.26 in 10.0 mi Calm Calm - N/A   Clear